Preview of NWS' New Version of Forecast
This preview is not operational and should not be used for support decisions.

Regional Weather Roundup (RWR)

Issued by Philadelphia/Mt Holly (PHI)

                            
000
ASUS41 KPHI 180912
RWRPHI

REGIONAL WEATHER ROUNDUP
NATIONAL WEATHER SERVICE MOUNT HOLLY NJ
400 AM EST FRI JAN 18 2019

NOTE:  "FAIR" INDICATES FEW OR NO CLOUDS BELOW 12,000 FEET WITH NO
SIGNIFICANT WEATHER AND/OR OBSTRUCTIONS TO VISIBILITY.

 * = STATION DOES NOT REPORT PRECIPITATION (E.G. RAIN, SNOW, ETC.) 
        OR FOG.

NJZ015>026-181000-
SOUTHERN NEW JERSEY
  
CITY           SKY/WX    TMP DP  RH WIND       PRES   REMARKS
POMONA         LGT SNOW  30  30 100 N3        30.12F FOG              
WILDWOOD*      MIX PCPN  33  31  92 NE5       30.11F WCI  29          
MILLVILLE      LGT SNOW  30  28  92 NE5       30.11F FOG     WCI  25  
WRIGHTSTOWN    LGT SNOW  28  28  98 CALM      30.10F FOG              
MOUNT HOLLY    LGT SNOW  29  27  92 CALM      30.14F FOG              
TRENTON        LGT SNOW  28  26  92 CALM      30.12F FOG              

$$
NJZ001>014-181000-
NORTHERN NEW JERSEY
  
CITY           SKY/WX    TMP DP  RH WIND       PRES   REMARKS
SUSSEX         LGT SNOW  24  21  88 NE5       30.12F FOG     WCI  18  
ANDOVER*         N/A     25  22  88 CALM      30.11F                  
MORRISTOWN     MIX PCPN  27  25  93 CALM      30.14F                  
NEWARK         LGT SNOW  27  25  92 N7        30.15F FOG     WCI  19  
TETERBORO      LGT SNOW  27  25  92 N7        30.14F FOG     WCI  19  
CALDWELL       CLOUDY    26  24  92 NE5       30.15F WCI  20          
SOMERVILLE     LGT SNOW  28  26  92 CALM      30.12F FOG              
ALLAIRE*       LGT SNOW  31  29  92 N3        30.13F FOG              
TOMS RIVER*    LGT SNOW  30  30 100 CALM      30.14S FOG              

$$
PAZ043-044-047-054-055-060>062-066>071-181000-
EASTERN PENNSYLVANIA
  
CITY           SKY/WX    TMP DP  RH WIND       PRES   REMARKS
PHILADELPHIA   LGT SNOW  30  28  92 NE3       30.14F FOG              
NORTH PHILA    CLOUDY    30  26  85 NE3       30.15F FOG              
BLUE BELL*     CLOUDY    28  28 100 CALM      30.13F                  
DOYLESTOWN     FLURRIES  27  24  89 N3        30.11F                  
QUAKERTOWN*    CLOUDY    27  25  93 CALM      30.11F FOG              
PERKASIE*      LGT SNOW  25  25 100 NE3       30.11F                  
POTTSTOWN      LGT SNOW  26  25  96 CALM      30.13F FOG              
LANCASTER      LGT SNOW  29  26  89 E5        30.09F FOG     WCI  24  
COATESVILLE    LGT SNOW  27  27 100 E7        30.10F WCI  19          
READING        FLURRIES  27  27 100 CALM      30.10F                  
ALLENTOWN      LGT SNOW  28  23  81 NE3       30.11F                  
MOUNT POCONO   LGT SNOW  20  19  96 E3        30.01F FOG              
HAZLETON       LGT SNOW N/A N/A N/A SE5       30.04F                  
LEHIGHTON      LGT SNOW  28  27  93 CALM      30.12F                  
WILKES BARRE   CLOUDY    24  22  91 CALM      30.05F FOG              

$$
DEZALL-MDZ008-012-015-019-020-181000-
DELAWARE AND EASTERN MARYLAND
  
CITY           SKY/WX    TMP DP  RH WIND       PRES   REMARKS
WILMINGTON     LGT SNOW  30  28  92 NE6       30.13F FOG     WCI  24  
DOVER          LGT SNOW  33  32  96 NE5       30.10F FOG     WCI  28  
GEORGETOWN     CLOUDY    37  34  89 NE6       30.09F WCI  32          
EASTON         MOCLDY    34  33  96 NE6       30.13F FOG     WCI  29  
PATUXENT       CLOUDY    36  35  96 NE3       30.08                   
OCEAN CITY     CLOUDY    37  36  96 CALM      30.08F                  
WALLOPS ISLAND CLOUDY    39  36  89 CALM      30.09F                  
SALISBURY      CLOUDY    35  34  96 CALM      30.08F                  

$$
PAZ001-021-NYZ056-072-MDZ011-DCZ001-181000-
OTHER NEARBY LOCATIONS
  
CITY           SKY/WX    TMP DP  RH WIND       PRES   REMARKS
HARRISBURG     LGT SNOW  27  24  89 E6        30.09F FOG     WCI  20  
STATE COLLEGE  LGT SNOW  26  25  96 CALM      30.00F                  
WILLIAMSPORT   LGT SNOW  26  22  84 E8        30.07F FOG     WCI  18  
BINGHAMTON     LGT SNOW  20  17  88 S8        29.96F FOG     WCI  10  
NEW YORK CITY  LGT SNOW  30  28  92 MISG      30.15  FOG              
BALTIMORE      LGT SNOW  32  31  96 E6        30.09F VSB 3/4 WCI  26  
WASHINGTON DC  LGT SNOW  34  31  88 NE6       30.10F FOG     WCI  29  

$$